Location: Newport
(44.6370°N, 124.0520°W)
Time: 19:29:02
(UTC-07:00)

Vanguard 1 - Pass Details

Date: 22 July 2018
Orbit: 650 x 3833 km, 34.3° (Epoch: 17 August)

Event Time Altitude Azimuth Distance (km) Brightness Sun altitude
Rises 21:13:50 0° 209° (SSW) 5,323 13.8 -4.0°
Reaches altitude 10° 21:19:59 10° 188° (S) 3,591 12.7 -4.9°
Maximum altitude 21:23:50 14° 161° (SSE) 2,863 12.0 -5.5°
Drops below altitude 10° 21:26:59 10° 132° (SE) 2,786 11.7 -5.9°
Enters shadow 21:28:12 - 122° (ESE) 2,913 11.8 -6.1°
